EW4784 Weather Reports


time (UTC)temp
F
wind
direction
speed
knots
gust
knots
rain 1hr
in
rain 24hr
in
rain mn
in
humidity
%
barometer
mb
20260506155251 53 342 11.3 20.0 0.00 0.02 0.00 44
20260506154750 54 333 10.4 26.1 0.00 0.02 0.00 42
20260506154249 55 357 12.2 21.7 0.00 0.02 0.00 43
20260506153748 54 333 9.6 16.5 0.00 0.02 0.00 46
20260506153247 53 341 8.7 22.6 0.00 0.02 0.00 46
20260506152807 54 339 6.1 14.8 0.00 0.02 0.00 47
20260506152306 54 333 6.1 15.6 0.00 0.02 0.00 51
20260506151744 53 352 6.1 13.9 0.00 0.02 0.00 55
20260506151243 53 17 2.6 6.1 0.00 0.02 0.00 52
20260506150742 54 347 7.8 15.6 0.00 0.02 0.00 52
20260506150241 54 334 7.0 14.8 0.00 0.02 0.00 51
20260506145740 53 22 4.3 9.6 0.00 0.02 0.00 56
20260506145239 52 346 2.6 10.4 0.00 0.02 0.00 56
20260506144738 52 342 4.3 10.4 0.00 0.02 0.00 57
20260506144237 52 353 2.6 7.8 0.00 0.02 0.00 57
20260506143736 52 11 5.2 13.9 0.00 0.02 0.00 59
20260506143235 51 345 7.8 16.5 0.00 0.02 0.00 60
20260506142733 50 17 3.5 11.3 0.00 0.02 0.00 60
20260506142233 50 32 2.6 7.8 0.00 0.02 0.00 60
20260506141731 51 347 5.2 8.7 0.00 0.02 0.00 61
20260506141231 51 330 5.2 12.2 0.00 0.02 0.00 59
20260506140730 52 22 5.2 10.4 0.00 0.02 0.00 61
20260506140228 51 13 7.8 13.9 0.00 0.02 0.00 61
20260506135727 51 33 5.2 11.3 0.00 0.02 0.00 61
20260506135227 51 26 2.6 9.6 0.00 0.02 0.00 59
20260506134726 51 25 5.2 11.3 0.00 0.02 0.00 60
20260506134225 50 14 5.2 12.2 0.00 0.02 0.00 62
20260506133745 50 11 6.1 11.3 0.00 0.02 0.00 61
20260506133223 50 53 2.6 7.0 0.00 0.02 0.00 60
20260506132722 51 24 2.6 10.4 0.00 0.02 0.00 62
20260506132220 50 19 3.5 10.4 0.00 0.02 0.00 63
20260506131239 51 17 7.0 15.6 0.00 0.02 0.00 63
20260506130717 50 13 5.2 9.6 0.00 0.02 0.00 65
20260506130216 50 6 6.1 11.3 0.00 0.02 0.00 66
20260506125715 50 41 2.6 7.8 0.00 0.02 0.00 66
20260506125214 49 13 1.7 7.0 0.00 0.02 0.00 68
20260506124735 49 4 5.2 10.4 0.00 0.02 0.00 69
20260506124212 48 13 3.5 7.8 0.00 0.02 0.00 72
20260506123712 48 6 7.0 13.0 0.00 0.02 0.00 73
20260506123211 48 24 2.6 7.8 0.00 0.02 0.00 76
20260506122730 47 12 3.5 7.0 0.00 0.02 0.00 77
20260506122208 47 14 3.5 7.8 0.00 0.02 0.00 78
20260506121707 46 359 2.6 7.8 0.00 0.02 0.00 78
20260506121207 45 14 2.6 6.1 0.00 0.02 0.00 79
20260506120705 45 1 0.9 5.2 0.00 0.02 0.00 78
20260506120225 46 15 2.6 7.0 0.00 0.02 0.00 78
20260506115703 46 345 3.5 8.7 0.00 0.02 0.00 78
20260506115203 45 2 0.9 3.5 0.00 0.02 0.00 79
20260506114702 45 342 0.9 3.5 0.00 0.02 0.00 78
20260506114200 45 11 0.9 5.2 0.00 0.02 0.00 80
20260506113700 44 4 1.7 5.2 0.00 0.02 0.00 80
20260506113158 44 11 2.6 7.0 0.00 0.02 0.00 80
20260506112657 44 359 2.6 5.2 0.00 0.02 0.00 80
20260506112156 44 350 2.6 7.0 0.00 0.02 0.00 80
20260506111716 44 0 2.6 7.0 0.00 0.02 0.00 79
20260506111154 44 353 3.5 7.8 0.00 0.02 0.00 79
20260506110653 44 0 1.7 5.2 0.00 0.02 0.00 78
20260506110213 44 356 3.5 7.0 0.00 0.02 0.00 77
20260506105651 44 357 2.6 6.1 0.00 0.02 0.00 76
20260506105150 44 349 4.3 7.0 0.00 0.02 0.00 76
20260506104649 44 9 4.3 10.4 0.00 0.02 0.00 75
20260506104148 44 348 5.2 11.3 0.00 0.02 0.00 75
20260506103647 45 356 6.1 12.2 0.00 0.02 0.00 74
20260506103207 45 353 5.2 7.8 0.00 0.02 0.00 73
20260506102645 45 1 5.2 8.7 0.00 0.02 0.00 73
20260506102144 45 353 4.3 7.0 0.00 0.02 0.00 72
20260506101643 45 2 3.5 7.0 0.00 0.02 0.00 71
20260506101142 45 353 5.2 8.7 0.00 0.02 0.00 71
20260506100641 45 8 1.7 5.2 0.00 0.02 0.00 71
20260506100140 45 4 4.3 8.7 0.00 0.02 0.00 71
20260506095700 45 355 4.3 8.7 0.00 0.02 0.00 70
20260506095138 45 350 1.7 5.2 0.00 0.02 0.00 69
20260506094658 46 12 2.6 5.2 0.00 0.02 0.00 69
20260506094136 46 346 4.3 10.4 0.00 0.02 0.00 68
20260506093635 46 7 3.5 6.1 0.00 0.02 0.00 68
20260506093134 46 351 4.3 8.7 0.00 0.02 0.00 67
20260506092633 46 359 2.6 7.8 0.00 0.02 0.00 67
20260506092132 46 352 4.3 7.8 0.00 0.02 0.00 65
20260506091652 46 353 5.2 9.6 0.00 0.02 0.00 65
20260506091130 46 351 4.3 11.3 0.00 0.02 0.00 65
20260506090629 46 357 7.0 13.0 0.00 0.02 0.00 64
20260506090129 46 349 2.6 7.8 0.00 0.02 0.00 65
20260506085627 46 356 3.5 7.0 0.00 0.02 0.00 64
20260506085127 46 358 4.3 9.6 0.00 0.02 0.00 64
20260506084625 46 351 6.1 11.3 0.00 0.02 0.00 63
20260506084124 46 355 3.5 9.6 0.00 0.02 0.00 63
20260506083623 46 349 5.2 8.7 0.00 0.02 0.00 63
20260506083122 46 2 4.3 10.4 0.00 0.02 0.00 63
20260506082621 46 352 4.3 9.6 0.00 0.02 0.00 63
20260506082120 46 359 3.5 8.7 0.00 0.02 0.00 61
20260506081619 46 354 5.2 7.8 0.00 0.02 0.00 61
20260506081118 46 2 5.2 9.6 0.00 0.02 0.00 61
20260506080617 47 350 4.3 10.4 0.00 0.02 0.00 61
20260506080116 47 354 2.6 7.0 0.00 0.02 0.00 60
20260506073110 47 356 5.2 8.7 0.00 0.02 0.00 57
20260506072609 47 6 6.1 10.4 0.00 0.02 0.00 57
20260506072107 47 355 7.0 13.0 0.00 0.02 0.00 57
20260506071607 47 3 7.8 16.5 0.00 0.02 0.00 57
20260506071106 47 346 5.2 11.3 0.00 0.02 0.00 58
20260506070605 48 353 6.1 10.4 0.00 0.02 0.00 57
20260506070104 47 354 4.3 8.7 0.00 0.02 0.00 57
20260506062056 48 357 5.2 10.4 0.00 0.02 0.00 61
20260506061555 48 8 4.3 7.8 0.00 0.02 0.00 60
20260506061053 48 353 5.2 9.6 0.00 0.02 0.00 60
20260506060552 48 333 2.6 10.4 0.00 0.02 0.00 59
20260506051042 48 348 4.3 10.4 0.00 0.03 0.00 57
20260506050541 48 307 2.6 8.7 0.00 0.03 0.00 58
20260506045038 49 350 5.2 10.4 0.00 0.04 0.00 56
20260506044536 49 350 5.2 11.3 0.00 0.04 0.00 56
20260506044037 49 348 4.3 10.4 0.00 0.04 0.00 57
20260506043535 49 346 5.2 9.6 0.00 0.04 0.00 57
20260506043033 49 358 5.2 8.7 0.00 0.04 0.00 58
20260506042532 49 342 2.6 7.8 0.00 0.04 0.00 58
20260506042031 49 338 1.7 7.0 0.00 0.04 0.00 57
20260506041531 49 344 2.6 7.0 0.00 0.04 0.00 56
20260506041052 49 357 5.2 9.6 0.00 0.04 0.00 56
20260506040528 49 349 6.1 11.3 0.00 0.04 0.00 55
20260506040027 49 351 5.2 9.6 0.00 0.04 0.00 55
20260506035527 49 351 6.1 10.4 0.00 0.04 0.04 54
20260506035025 49 352 5.2 11.3 0.00 0.04 0.04 57
20260506034525 49 323 2.6 7.8 0.00 0.04 0.04 55
20260506034024 49 306 0.9 4.3 0.00 0.04 0.04 55
20260506033544 49 321 0.9 5.2 0.00 0.04 0.04 55
20260506033042 49 295 1.7 7.8 0.00 0.04 0.04 54
20260506032520 49 307 2.6 6.1 0.00 0.04 0.04 54
20260506032020 49 296 2.6 7.0 0.00 0.04 0.04 53
20260506031519 49 300 3.5 9.6 0.00 0.04 0.04 53
20260506031017 49 309 2.6 8.7 0.00 0.04 0.04 52
20260506030516 49 303 1.7 8.7 0.00 0.04 0.04 53
20260506030015 49 302 3.5 7.8 0.00 0.04 0.04 52
20260506025514 50 323 1.7 7.0 0.00 0.04 0.04 52
20260506025034 50 301 2.6 8.7 0.00 0.04 0.04 52
20260506024513 50 300 1.7 6.1 0.00 0.04 0.04 52
20260506024011 50 308 3.5 12.2 0.00 0.04 0.04 51
20260506023511 50 310 3.5 11.3 0.00 0.04 0.04 51
20260506023030 50 310 1.7 7.0 0.00 0.04 0.04 51
20260506022508 50 308 2.6 7.8 0.00 0.04 0.04 52
20260506022007 50 316 2.6 9.6 0.00 0.04 0.04 50
20260506021507 50 310 4.3 12.2 0.00 0.04 0.04 49
20260506021006 50 306 2.6 9.6 0.00 0.04 0.04 50
20260506020504 50 302 2.6 7.0 0.00 0.04 0.04 50
20260506020004 50 304 3.5 14.8 0.00 0.04 0.04 50
20260506015503 50 305 4.3 8.7 0.00 0.04 0.04 50
20260506015001 50 308 3.5 9.6 0.00 0.04 0.04 49
20260506014500 50 286 1.7 7.8 0.00 0.04 0.04 48
20260506013959 51 305 3.5 11.3 0.00 0.04 0.04 48
20260506013458 51 308 2.6 7.8 0.00 0.04 0.04 47
20260506012957 51 307 4.3 10.4 0.00 0.04 0.04 47
20260506012456 51 316 2.6 13.0 0.00 0.04 0.04 48
20260506012016 51 325 3.5 9.6 0.00 0.04 0.04 49
20260506011454 51 305 3.5 10.4 0.00 0.04 0.04 48
20260506010953 51 313 5.2 11.3 0.00 0.04 0.04 47
20260506010452 51 311 3.5 10.4 0.00 0.04 0.04 48
20260506005951 51 311 6.1 15.6 0.00 0.04 0.04 47
20260506005450 51 320 0.9 10.4 0.00 0.04 0.04 48
20260506005010 51 306 4.3 12.2 0.00 0.04 0.04 47
20260506004509 51 308 3.5 10.4 0.00 0.04 0.04 47
20260506003947 52 297 6.1 14.8 0.00 0.04 0.04 46
20260506003446 52 306 6.1 13.0 0.00 0.04 0.04 46
20260506003006 52 324 7.8 19.1 0.00 0.04 0.04 48
20260506002444 52 344 3.5 12.2 0.00 0.04 0.04 49
20260506001943 52 326 5.2 13.9 0.00 0.04 0.04 48
20260506001443 52 333 4.3 13.0 0.00 0.04 0.04 48
20260506000941 52 313 7.0 13.9 0.00 0.04 0.04 47
20260506000440 52 303 7.0 14.8 0.00 0.04 0.04 47
20260505235939 52 310 10.4 23.5 0.00 0.04 0.04 49
20260505235438 52 319 4.3 15.6 0.00 0.04 0.04 52
20260505234937 52 304 3.5 9.6 0.00 0.04 0.04 52
20260505234436 52 299 3.5 13.0 0.00 0.04 0.04 52
20260505233956 53 307 5.2 11.3 0.00 0.04 0.04 52
20260505233434 53 299 6.1 11.3 0.00 0.04 0.04 51
20260505232933 53 301 6.1 13.9 0.00 0.04 0.04 51
20260505232432 53 310 5.2 10.4 0.00 0.04 0.04 51
20260505231952 53 310 6.1 15.6 0.00 0.04 0.04 51
20260505231430 53 311 7.8 16.5 0.00 0.04 0.04 50
20260505230929 53 305 2.6 13.0 0.00 0.04 0.04 52
20260505230429 53 312 5.2 12.2 0.00 0.04 0.04 51
20260505225957 54 308 5.2 14.8 0.00 0.04 0.04 52
20260505225426 54 308 7.8 16.5 0.00 0.04 0.04 50
20260505224924 54 314 7.8 13.9 0.00 0.04 0.04 52
20260505224424 54 308 7.8 13.9 0.00 0.04 0.04 52
20260505223923 54 305 7.8 13.9 0.00 0.04 0.04 53
20260505223422 54 318 7.0 18.2 0.00 0.04 0.04 54
20260505222920 54 314 7.0 18.2 0.00 0.04 0.04 54
20260505222421 54 313 7.0 15.6 0.00 0.04 0.04 54
20260505221940 54 313 4.3 12.2 0.00 0.04 0.04 55
20260505221418 54 300 5.2 14.8 0.00 0.04 0.04 55
20260505220917 54 316 9.6 16.5 0.00 0.04 0.04 54
20260505220416 54 309 6.1 22.6 0.00 0.04 0.04 56
20260505215915 54 306 8.7 16.5 0.00 0.04 0.04 59
20260505215414 54 309 10.4 20.0 0.00 0.04 0.04 59
20260505214913 54 307 11.3 20.0 0.00 0.04 0.04 61
20260505214433 55 308 9.6 19.1 0.00 0.04 0.04 61
20260505213932 55 304 7.8 20.0 0.00 0.04 0.04 62
20260505213409 55 292 10.4 25.2 0.00 0.04 0.04 64
20260505212909 55 308 7.8 20.0 0.00 0.04 0.04 67
20260505212407 55 282 5.2 12.2 0.00 0.04 0.04 71
20260505211907 54 283 3.5 8.7 0.00 0.04 0.04 73
20260505211407 54 285 2.6 7.0 0.00 0.04 0.04 73
20260505210904 54 304 6.1 11.3 0.00 0.04 0.04 73
20260505210425 54 279 3.5 9.6 0.00 0.04 0.04 75
20260505205924 53 285 4.3 12.2 0.00 0.04 0.04 75
20260505205423 53 267 3.5 12.2 0.00 0.04 0.04 75
20260505204901 53 247 5.2 11.3 0.00 0.04 0.04 75
20260505204359 53 253 6.1 16.5 0.00 0.04 0.04 75
20260505203858 53 221 6.1 10.4 0.00 0.04 0.04 75
20260505203418 53 238 5.2 13.9 0.00 0.04 0.04 76
20260505202857 53 252 4.3 10.4 0.00 0.04 0.04 76
20260505202356 53 244 4.3 13.0 0.00 0.04 0.04 77
20260505201854 53 258 2.6 12.2 0.00 0.04 0.04 77
20260505201354 53 250 2.6 9.6 0.00 0.04 0.04 77
20260505200853 53 281 3.5 13.0 0.00 0.04 0.04 77
20260505200351 53 259 3.5 12.2 0.00 0.04 0.04 77
20260505195851 53 278 4.3 12.2 0.00 0.04 0.04 77
20260505195349 53 277 7.0 16.5 0.00 0.04 0.04 77
20260505194848 53 276 5.2 13.9 0.00 0.04 0.04 79
20260505194347 53 247 4.3 10.4 0.00 0.04 0.04 79
20260505193846 52 223 4.3 13.0 0.00 0.04 0.04 80
20260505193407 52 227 6.1 14.8 0.00 0.04 0.04 80
20260505192844 52 258 5.2 11.3 0.00 0.04 0.04 80
20260505192343 52 249 6.1 18.2 0.00 0.04 0.04 80
20260505191842 52 245 3.5 9.6 0.00 0.04 0.04 81
20260505191342 52 229 6.1 14.8 0.00 0.04 0.04 81
20260505190840 52 227 6.1 13.0 0.00 0.04 0.04 81
20260505190339 52 221 8.7 15.6 0.00 0.04 0.04 81
20260505185838 52 218 7.0 13.0 0.00 0.04 0.04 81
20260505185358 52 235 4.3 13.0 0.00 0.04 0.04 81
20260505184836 53 240 4.3 8.7 0.00 0.04 0.04 80
20260505184336 53 230 6.1 15.6 0.00 0.04 0.04 80
20260505183835 53 228 9.6 16.5 0.00 0.04 0.04 79
20260505183333 53 226 7.0 17.4 0.00 0.04 0.04 80
20260505182832 53 254 7.8 17.4 0.00 0.04 0.04 80
20260505182331 53 224 7.0 13.0 0.00 0.04 0.04 79
20260505181831 54 260 9.6 18.2 0.00 0.04 0.04 79
20260505181329 54 215 7.0 17.4 0.00 0.04 0.04 80
20260505180849 53 211 7.8 13.9 0.00 0.04 0.04 82
20260505180328 52 217 8.7 14.8 0.00 0.04 0.04 83
20260505175827 52 242 7.8 16.5 0.00 0.04 0.04 83
20260505175325 52 231 6.1 14.8 0.00 0.04 0.04 85
20260505174824 52 221 5.2 13.0 0.00 0.04 0.04 85
20260505174323 52 229 4.3 11.3 0.00 0.04 0.04 86
20260505173843 51 234 7.0 13.9 0.00 0.04 0.04 85
20260505173343 51 236 4.3 12.2 0.00 0.04 0.04 84
20260505172820 52 250 6.1 15.6 0.01 0.04 0.04 83
20260505172319 52 271 2.6 9.6 0.01 0.04 0.04 83
20260505171819 52 252 7.0 14.8 0.01 0.04 0.04 83
20260505171318 52 241 8.7 17.4 0.02 0.04 0.04 85
20260505170816 51 225 8.7 18.2 0.02 0.04 0.04 86
20260505170316 51 237 5.2 14.8 0.02 0.04 0.04 87
20260505165814 51 248 9.6 22.6 0.02 0.04 0.04 88
20260505165334 51 236 7.0 14.8 0.02 0.04 0.04 88
20260505164813 51 237 1.7 6.1 0.02 0.04 0.04 87
20260505164311 51 273 0.9 6.1 0.02 0.04 0.04 87
20260505163810 51 265 3.5 9.6 0.02 0.04 0.04 86
20260505163331 51 299 2.6 8.7 0.02 0.04 0.03 86
20260505162808 50 283 2.6 8.7 0.01 0.03 0.03 85
20260505162307 51 296 4.3 13.9 0.01 0.03 0.03 85
20260505161806 51 307 3.5 12.2 0.01 0.03 0.03 83
20260505161326 52 319 7.0 13.9 0.00 0.02 0.02 82
20260505160804 52 341 7.8 16.5 0.00 0.02 0.02 80
20260505160303 53 344 5.2 12.2 0.00 0.02 0.02 78